Weather History for Indianapolis, IN

Change the Weather History Date:

Monday, October 28, 2013

  Actual Average (KEYE) Record (KEYE)
Temperature  
Mean Temperature 42 °F 51 °F  
Max Temperature 60 °F 60 °F 79 °F (1999)
Min Temperature 26 °F 42 °F 25 °F (1997)
Degree Days  
Heating Degree Days 22 14  
Month to date heating degree days 286  
Since 1 July heating degree days 347  
Cooling Degree Days 0 0  
Month to date cooling degree days 12  
Year to date cooling degree days 1055  
Moisture  
Dew Point 28 °F    
Average Humidity 70    
Maximum Humidity 91    
Minimum Humidity 28    
Precipitation  
Precipitation 0.00 in 0.10 in 0.09 in (2003)
Month to date precipitation 2.84  
Year to date precipitation 33.74  
Sea Level Pressure  
Sea Level Pressure 30.21 in    
Wind  
Wind Speed 0 mph (East)    
Max Wind Speed 6 mph    
Max Gust Speed -    
Visibility 10 miles    
Events      
T = Trace of Precipitation, MM = Missing Value Source: NWS Daily Summary

Daily Weather History Graph

Daily Weather History Graph

Search for Another Location

Airport:

Trip Planner

Search our weather history database for the weather conditions in past years. The results will help you decide how hot, cold, wet, or windy it might be!

Date:

Astronomy

Oct. 28, 2013 Rise Set
Actual Time 8:09 AM EDT 6:47 PM EDT
Civil Twilight 7:41 AM EDT 7:14 PM EDT
Nautical Twilight 7:10 AM EDT 7:46 PM EDT
Astronomical Twilight 6:38 AM EDT 8:18 PM EDT
Moon 2:02 AM EDT (10/28) 3:28 PM EDT (10/28)
Length of Visible Light 11h 32m
Length of Day
10h 37m
Waning Crescent, 34% of the Moon is Illuminated
Oct 28
Waning Crescent
Nov 3
New
Nov 10
First Quarter
Nov 17
Full
Nov 25
Last Quarter

Hourly Weather History & Observations

Time (EDT) Temp. Windchill Dew Point Humidity Pressure Visibility Wind Dir Wind Speed Gust Speed Precip Events Conditions
12:15 AM 30.0 °F - 27.1 °F 89% 30.08 in 10.0 mi Calm Calm - N/A   Clear
12:35 AM 29.3 °F - 26.6 °F 90% 30.09 in 10.0 mi Calm Calm - N/A   Clear
12:55 AM 29.3 °F - 26.6 °F 90% 30.09 in 10.0 mi Calm Calm - N/A   Clear
1:15 AM 29.1 °F - 26.4 °F 90% 30.09 in 10.0 mi Calm Calm - N/A   Clear
1:35 AM 28.9 °F - 26.2 °F 90% 30.10 in 10.0 mi Calm Calm - N/A   Clear
1:55 AM 28.9 °F - 26.2 °F 90% 30.10 in 10.0 mi Calm Calm - N/A   Clear
2:15 AM 28.4 °F - 25.7 °F 90% 30.11 in 10.0 mi Calm Calm - N/A   Clear
2:35 AM 28.2 °F - 25.5 °F 90% 30.11 in 10.0 mi Calm Calm - N/A   Clear
2:55 AM 28.2 °F - 25.5 °F 90% 30.11 in 10.0 mi Calm Calm - N/A   Clear
3:15 AM 28.2 °F - 25.5 °F 90% 30.11 in 10.0 mi Calm Calm - N/A   Clear
3:35 AM 28.0 °F - 25.3 °F 90% 30.12 in 10.0 mi Calm Calm - N/A   Clear
3:55 AM 27.5 °F - 24.8 °F 90% 30.13 in 10.0 mi Calm Calm - N/A   Clear
4:15 AM 27.5 °F - 24.8 °F 90% 30.13 in 10.0 mi Calm Calm - N/A   Clear
4:35 AM 27.1 °F - 24.4 °F 90% 30.14 in 10.0 mi Calm Calm - N/A   Clear
4:55 AM 27.5 °F - 24.8 °F 90% 30.14 in 10.0 mi Calm Calm - N/A   Clear
5:15 AM 27.1 °F - 24.4 °F 90% 30.15 in 10.0 mi Calm Calm - N/A   Clear
5:35 AM 27.0 °F - 24.3 °F 90% 30.15 in 10.0 mi Calm Calm - N/A   Clear
5:55 AM 26.6 °F - 23.9 °F 90% 30.15 in 10.0 mi Calm Calm - N/A   Clear
6:15 AM 27.0 °F - 24.3 °F 90% 30.15 in 10.0 mi Calm Calm - N/A   Clear
6:35 AM 26.6 °F - 23.9 °F 90% 30.16 in 10.0 mi Calm Calm - N/A   Clear
6:55 AM 26.6 °F - 23.9 °F 90% 30.17 in 10.0 mi Calm Calm - N/A   Clear
7:15 AM 26.4 °F - 23.7 °F 90% 30.17 in 10.0 mi Calm Calm - N/A   Clear
7:35 AM 26.6 °F - 23.9 °F 90% 30.17 in 10.0 mi Calm Calm - N/A   Clear
7:55 AM 26.6 °F - 23.9 °F 90% 30.18 in 10.0 mi Calm Calm - N/A   Clear
8:15 AM 26.2 °F - 23.2 °F 88% 30.18 in 10.0 mi Calm Calm - N/A   Clear
8:35 AM 26.6 °F - 23.9 °F 90% 30.19 in 10.0 mi Calm Calm - N/A   Clear
8:55 AM 28.8 °F - 26.1 °F 90% 30.19 in 10.0 mi Calm Calm - N/A   Clear
9:15 AM 30.9 °F - 28.2 °F 90% 30.21 in 10.0 mi Calm Calm - N/A   Clear
9:35 AM 34.7 °F - 32.2 °F 91% 30.22 in 10.0 mi Calm Calm - N/A   Clear
9:55 AM 39.6 °F - 36.3 °F 88% 30.23 in 10.0 mi Calm Calm - N/A   Clear
10:15 AM 43.7 °F - 37.0 °F 77% 30.23 in 10.0 mi Calm Calm - N/A   Clear
10:35 AM 45.7 °F - 35.4 °F 67% 30.24 in 10.0 mi Calm Calm - N/A   Clear
10:55 AM 47.8 °F - 33.3 °F 57% 30.24 in 10.0 mi Calm Calm - N/A   Clear
11:15 AM 49.8 °F - 32.5 °F 51% 30.25 in 10.0 mi Calm Calm - N/A   Clear
11:35 AM 52.0 °F - 33.1 °F 49% 30.25 in 10.0 mi Calm Calm - N/A   Clear
11:55 AM 54.3 °F - 32.2 °F 43% 30.25 in 10.0 mi Calm Calm - N/A   Clear
12:15 PM 54.9 °F - 30.2 °F 39% 30.26 in 10.0 mi Calm Calm - N/A   Clear
12:35 PM 56.3 °F - 29.8 °F 36% 30.26 in 10.0 mi SSE 3.5 mph - N/A   Clear
12:55 PM 57.0 °F - 27.5 °F 32% 30.25 in 10.0 mi ENE 3.5 mph - N/A   Clear
1:15 PM 57.7 °F - 26.4 °F 30% 30.25 in 10.0 mi Calm Calm - N/A   Clear
1:35 PM 57.7 °F - 26.4 °F 30% 30.25 in 10.0 mi SE 3.5 mph - N/A   Clear
1:55 PM 57.6 °F - 26.2 °F 30% 30.24 in 10.0 mi Calm Calm - N/A   Clear
2:15 PM 59.0 °F - 26.6 °F 29% 30.23 in 10.0 mi SE 5.8 mph - N/A   Clear
2:35 PM 58.5 °F - 26.8 °F 30% 30.23 in 10.0 mi South 4.6 mph - N/A   Clear
2:55 PM 59.0 °F - 26.8 °F 29% 30.23 in 10.0 mi WSW 3.5 mph - N/A   Clear
3:15 PM 59.2 °F - 26.6 °F 29% 30.22 in 10.0 mi Calm Calm - N/A   Clear
3:35 PM 59.0 °F - 27.3 °F 30% 30.23 in 10.0 mi East 4.6 mph - N/A   Clear
3:55 PM 59.9 °F - 27.5 °F 29% 30.23 in 10.0 mi Calm Calm - N/A   Clear
4:15 PM 59.4 °F - 27.5 °F 30% 30.23 in 10.0 mi Calm Calm - N/A   Clear
4:35 PM 58.6 °F - 26.6 °F 29% 30.23 in 10.0 mi ENE 3.5 mph - N/A   Clear
4:55 PM 59.2 °F - 25.9 °F 28% 30.23 in 10.0 mi NNE 3.5 mph - N/A   Clear
5:15 PM 59.2 °F - 26.6 °F 29% 30.24 in 10.0 mi Calm Calm - N/A   Clear
5:35 PM 57.9 °F - 25.9 °F 29% 30.24 in 10.0 mi Calm Calm - N/A   Clear
5:55 PM 57.2 °F - 26.2 °F 31% 30.24 in 10.0 mi ESE 3.5 mph - N/A   Clear
6:15 PM 56.5 °F - 27.7 °F 33% 30.25 in 10.0 mi Calm Calm - N/A   Clear
6:35 PM 47.1 °F - 35.6 °F 64% 30.25 in 10.0 mi Calm Calm - N/A   Clear
6:55 PM 42.8 °F - 33.6 °F 70% 30.25 in 10.0 mi Calm Calm - N/A   Clear
7:15 PM 40.3 °F - 33.4 °F 77% 30.26 in 10.0 mi Calm Calm - N/A   Clear
7:35 PM 39.2 °F 37.0 °F 32.7 °F 78% 30.26 in 10.0 mi NNE 3.5 mph - N/A   Clear
7:55 PM 38.1 °F - 32.0 °F 79% 30.27 in 10.0 mi Calm Calm - N/A   Clear
8:15 PM 37.2 °F - 32.5 °F 83% 30.27 in 10.0 mi Calm Calm - N/A   Clear
8:35 PM 37.2 °F - 32.4 °F 83% 30.28 in 10.0 mi Calm Calm - N/A   Clear
8:55 PM 35.8 °F - 31.8 °F 86% 30.28 in 10.0 mi Calm Calm - N/A   Clear
9:15 PM 35.1 °F - 31.6 °F 87% 30.28 in 10.0 mi Calm Calm - N/A   Clear
9:35 PM 35.4 °F 32.6 °F 31.8 °F 87% 30.28 in 10.0 mi NNE 3.5 mph - N/A   Clear
9:55 PM 35.1 °F - 31.6 °F 87% 30.29 in 10.0 mi Calm Calm - N/A   Clear
10:15 PM 34.0 °F - 30.9 °F 89% 30.30 in 10.0 mi Calm Calm - N/A   Clear
10:35 PM 33.8 °F - 30.9 °F 89% 30.30 in 10.0 mi Calm Calm - N/A   Clear
10:55 PM 33.6 °F - 30.9 °F 90% 30.31 in 10.0 mi Calm Calm - N/A   Clear
11:15 PM 33.4 °F - 30.7 °F 90% 30.31 in 10.0 mi Calm Calm - N/A   Clear
11:35 PM 33.4 °F - 30.9 °F 90% 30.31 in 10.0 mi Calm Calm - N/A   Clear
11:55 PM 33.8 °F - 31.1 °F 90% 30.31 in 10.0 mi Calm Calm - N/A   Clear